402P/LINEAR (2021)

Japanese version
Home page
Updated on May 4, 2021

---------------------------------------------------------------------

* Profile

Designation 402P/2020 Q3
Recovery Date August 18, 2020
Magnitude 19.5 mag
Recoverer E. Schwab (Egelsbach, Germany)

* Pictures

* Orbital Elements

Epoch 2021 Dec. 12.0 TT = JDT 2459560.5
T 2021 Dec. 14.54743 TT                                 Rudenko
q   3.9378775            (2000.0)            P               Q
n   0.05304382     Peri.  326.73179     -0.06194552     -0.90087460
a   7.0152991      Node   123.09140     +0.99049364     -0.10845943
e   0.4386729      Incl.   30.85152     +0.12282144     +0.42031120
P  18.6
From 1328 observations 2001 Nov. 22-2021 Apr. 11, mean residual 0".9.

* Finding Charts

* Magnitudes Graph

        m1 = -5   + 5 log d + 30   log r  [    ,-280]  (             - 2021 Mar.  9)
        m1 =  6.0 + 5 log d + 12.5 log r  [-280,    ]  (2021 Mar.  9 -             )

---------------------------------------------------------------------

The orbital elements are published on M.P.E.C. 2021-J28.
The charts are made with StellaNavigator Ver.10 (AstroArts).
The magnitudes graphs are made with Comet for Windows.

---------------------------------------------------------------------

Copyright(C) Seiichi Yoshida (comet@aerith.net). All rights reserved.